Stündliche Wetter Aalen

Heute, 22 Juni, Dienstag

Zeit Temperatur Niederschläge Wind Luftdruck Luftfeuchtigkeit
00:00 +17°C° 3.2 mm 2 m/S 719 mmHg 93%
01:00 +16°C° 3.2 mm 1 m/S 719 mmHg 96%
02:00 +16°C° 0 mm 1 m/S 719 mmHg 96%
03:00 +15°C° 0 mm 1 m/S 719 mmHg 97%
04:00 +15°C° 0 mm 1 m/S 719 mmHg 97%
05:00 +16°C° 0 mm 1 m/S 719 mmHg 95%
06:00 +18°C° 0 mm 1 m/S 719 mmHg 93%
07:00 +17°C° 0 mm 0 m/S 719 mmHg 92%
08:00 +20°C° 0 mm 1 m/S 719 mmHg 85%
09:00 +21°C° 0 mm 1 m/S 720 mmHg 79%
10:00 +21°C° 0 mm 2 m/S 720 mmHg 72%
11:00 +23°C° 0.2 mm 2 m/S 720 mmHg 71%
12:00 +23°C° 0.2 mm 2 m/S 720 mmHg 71%
13:00 +24°C° 0.2 mm 3 m/S 720 mmHg 70%
14:00 +22°C° 1.2 mm 3 m/S 720 mmHg 74%
15:00 +22°C° 1.2 mm 3 m/S 720 mmHg 79%
16:00 +22°C° 1.2 mm 3 m/S 720 mmHg 83%
17:00 +21°C° 1.2 mm 2 m/S 720 mmHg 86%
18:00 +20°C° 1.2 mm 2 m/S 721 mmHg 89%
19:00 +19°C° 1.2 mm 2 m/S 721 mmHg 92%
20:00 +18°C° 1 mm 2 m/S 721 mmHg 93%
21:00 +18°C° 1 mm 1 m/S 721 mmHg 95%
22:00 +18°C° 1 mm 1 m/S 722 mmHg 96%
23:00 +18°C° 3.5 mm 1 m/S 722 mmHg 97%

Morgen, 23 Juni, Mittwoch

Zeit Temperatur Niederschläge Wind Luftdruck Luftfeuchtigkeit
00:00 +16°C° 3.5 mm 1 m/S 722 mmHg 97%
01:00 +16°C° 3.5 mm 1 m/S 722 mmHg 98%
02:00 +16°C° 3.3 mm 1 m/S 722 mmHg 98%
03:00 +16°C° 3.3 mm 1 m/S 722 mmHg 98%
04:00 +16°C° 3.3 mm 2 m/S 722 mmHg 98%
05:00 +16°C° 0.1 mm 1 m/S 723 mmHg 96%
06:00 +16°C° 0.1 mm 1 m/S 723 mmHg 95%
07:00 +18°C° 0.1 mm 1 m/S 724 mmHg 93%
08:00 +18°C° 0 mm 2 m/S 724 mmHg 87%
09:00 +19°C° 0 mm 2 m/S 724 mmHg 82%
10:00 +20°C° 0 mm 3 m/S 724 mmHg 76%
11:00 +20°C° 0 mm 3 m/S 724 mmHg 74%
12:00 +21°C° 0 mm 3 m/S 724 mmHg 72%
13:00 +21°C° 0 mm 4 m/S 724 mmHg 70%
14:00 +21°C° 0 mm 4 m/S 724 mmHg 70%
15:00 +21°C° 0 mm 4 m/S 724 mmHg 69%
16:00 +22°C° 0 mm 4 m/S 724 mmHg 69%
17:00 +21°C° 0 mm 4 m/S 723 mmHg 74%
18:00 +20°C° 0 mm 3 m/S 723 mmHg 79%
19:00 +19°C° 0 mm 3 m/S 723 mmHg 84%
20:00 +18°C° 0.2 mm 3 m/S 723 mmHg 88%
21:00 +16°C° 0.2 mm 2 m/S 723 mmHg 93%
22:00 +15°C° 0.2 mm 2 m/S 723 mmHg 97%
23:00 +15°C° 0.8 mm 2 m/S 723 mmHg 98%

übermorgen, 24 Juni, Donnerstag

Zeit Temperatur Niederschläge Wind Luftdruck Luftfeuchtigkeit
00:00 +15°C° 0.8 mm 2 m/S 723 mmHg 98%
01:00 +14°C° 0.8 mm 2 m/S 723 mmHg 98%
02:00 +14°C° 2.8 mm 2 m/S 723 mmHg 98%
03:00 +14°C° 2.8 mm 2 m/S 723 mmHg 98%
04:00 +13°C° 2.8 mm 1 m/S 723 mmHg 98%
05:00 +14°C° 0 mm 1 m/S 723 mmHg 97%
06:00 +14°C° 0 mm 1 m/S 723 mmHg 97%
07:00 +15°C° 0 mm 1 m/S 723 mmHg 96%
08:00 +15°C° 0 mm 1 m/S 723 mmHg 95%
09:00 +16°C° 0 mm 1 m/S 723 mmHg 93%
10:00 +16°C° 0 mm 2 m/S 723 mmHg 92%
11:00 +17°C° 0.1 mm 2 m/S 723 mmHg 90%
12:00 +17°C° 0.1 mm 2 m/S 723 mmHg 88%
13:00 +18°C° 0.1 mm 2 m/S 723 mmHg 87%
14:00 +18°C° 0 mm 2 m/S 723 mmHg 85%
15:00 +18°C° 0 mm 3 m/S 723 mmHg 83%
16:00 +19°C° 0 mm 4 m/S 723 mmHg 81%
17:00 +18°C° 0 mm 3 m/S 723 mmHg 83%
18:00 +18°C° 0 mm 2 m/S 723 mmHg 85%
19:00 +17°C° 0 mm 2 m/S 723 mmHg 88%
20:00 +16°C° 0 mm 2 m/S 723 mmHg 90%
21:00 +15°C° 0 mm 1 m/S 723 mmHg 92%
22:00 +14°C° 0 mm 1 m/S 724 mmHg 94%
23:00 +14°C° 0 mm 1 m/S 724 mmHg 94%

25 Juni, Freitag

Zeit Temperatur Niederschläge Wind Luftdruck Luftfeuchtigkeit
00:00 +14°C° 0 mm 1 m/S 723 mmHg 94%
01:00 +14°C° 0 mm 1 m/S 723 mmHg 94%
02:00 +14°C° 0 mm 1 m/S 723 mmHg 94%
03:00 +14°C° 0 mm 1 m/S 723 mmHg 94%
04:00 +14°C° 0 mm 1 m/S 723 mmHg 93%
05:00 +14°C° 0.3 mm 1 m/S 724 mmHg 94%
06:00 +15°C° 0.3 mm 1 m/S 724 mmHg 94%
07:00 +15°C° 0.3 mm 1 m/S 724 mmHg 95%
08:00 +16°C° 0.2 mm 1 m/S 724 mmHg 92%
09:00 +18°C° 0.2 mm 1 m/S 724 mmHg 90%
10:00 +19°C° 0.2 mm 1 m/S 725 mmHg 88%
11:00 +19°C° 0.6 mm 1 m/S 725 mmHg 85%
12:00 +19°C° 0.6 mm 2 m/S 725 mmHg 82%
13:00 +20°C° 0.6 mm 2 m/S 724 mmHg 80%
14:00 +20°C° 0.6 mm 2 m/S 724 mmHg 80%
15:00 +20°C° 0.6 mm 2 m/S 724 mmHg 80%
16:00 +20°C° 0.6 mm 2 m/S 724 mmHg 80%
17:00 +19°C° 0.4 mm 2 m/S 724 mmHg 83%
18:00 +19°C° 0.4 mm 2 m/S 724 mmHg 87%
19:00 +18°C° 0.4 mm 2 m/S 724 mmHg 91%
20:00 +17°C° 0.7 mm 2 m/S 725 mmHg 92%
21:00 +16°C° 0.7 mm 1 m/S 725 mmHg 93%
22:00 +15°C° 0.7 mm 1 m/S 725 mmHg 94%
23:00 +14°C° 0 mm 1 m/S 725 mmHg 95%

26 Juni, Samstag

Zeit Temperatur Niederschläge Wind Luftdruck Luftfeuchtigkeit
00:00 +14°C° 0 mm 1 m/S 725 mmHg 95%
01:00 +14°C° 0 mm 1 m/S 725 mmHg 95%
02:00 +13°C° 0 mm 1 m/S 725 mmHg 95%
03:00 +13°C° 0 mm 1 m/S 725 mmHg 96%
04:00 +13°C° 0 mm 1 m/S 725 mmHg 96%
05:00 +14°C° 0 mm 1 m/S 725 mmHg 95%
06:00 +15°C° 0 mm 1 m/S 726 mmHg 94%
07:00 +16°C° 0 mm 1 m/S 726 mmHg 93%
08:00 +18°C° 0.1 mm 1 m/S 726 mmHg 88%
09:00 +19°C° 0.1 mm 1 m/S 726 mmHg 83%
10:00 +20°C° 0.1 mm 2 m/S 726 mmHg 77%
11:00 +21°C° 0.1 mm 2 m/S 726 mmHg 72%
12:00 +23°C° 0.1 mm 2 m/S 726 mmHg 66%
13:00 +24°C° 0.1 mm 2 m/S 726 mmHg 60%
14:00 +24°C° 0 mm 2 m/S 725 mmHg 60%
15:00 +24°C° 0 mm 2 m/S 725 mmHg 59%
16:00 +24°C° 0 mm 2 m/S 725 mmHg 58%
17:00 +23°C° 0 mm 2 m/S 725 mmHg 65%
18:00 +22°C° 0 mm 1 m/S 725 mmHg 72%
19:00 +21°C° 0 mm 1 m/S 725 mmHg 80%
20:00 +20°C° 0 mm 1 m/S 725 mmHg 82%
21:00 +18°C° 0 mm 1 m/S 725 mmHg 85%
22:00 +15°C° 0 mm 0 m/S 725 mmHg 88%
23:00 +14°C° 0 mm 0 m/S 725 mmHg 88%

27 Juni, Sonntag

Zeit Temperatur Niederschläge Wind Luftdruck Luftfeuchtigkeit
00:00 +14°C° 0 mm 0 m/S 725 mmHg 89%
01:00 +14°C° 0 mm 0 m/S 725 mmHg 89%
02:00 +13°C° 0 mm 0 m/S 724 mmHg 89%
03:00 +13°C° 0 mm 0 m/S 724 mmHg 90%
04:00 +13°C° 0 mm 0 m/S 724 mmHg 90%
05:00 +14°C° 0 mm 0 m/S 724 mmHg 87%
06:00 +16°C° 0 mm 0 m/S 724 mmHg 84%
07:00 +17°C° 0 mm 0 m/S 725 mmHg 81%
08:00 +21°C° 0 mm 1 m/S 725 mmHg 76%
09:00 +22°C° 0 mm 1 m/S 725 mmHg 70%
10:00 +24°C° 0 mm 1 m/S 725 mmHg 65%
11:00 +25°C° 0 mm 1 m/S 725 mmHg 61%
12:00 +25°C° 0 mm 1 m/S 725 mmHg 58%
13:00 +26°C° 0 mm 1 m/S 724 mmHg 54%
14:00 +26°C° 0 mm 1 m/S 724 mmHg 54%
15:00 +27°C° 0 mm 1 m/S 724 mmHg 54%
16:00 +27°C° 0 mm 1 m/S 724 mmHg 54%
17:00 +26°C° 0 mm 1 m/S 724 mmHg 61%
18:00 +25°C° 0 mm 1 m/S 724 mmHg 69%
19:00 +24°C° 0 mm 1 m/S 724 mmHg 77%
20:00 +22°C° 0 mm 1 m/S 725 mmHg 80%
21:00 +21°C° 0 mm 1 m/S 725 mmHg 83%
22:00 +19°C° 0 mm 1 m/S 725 mmHg 86%
23:00 +19°C° 0 mm 1 m/S 725 mmHg 87%
Mehr zeigen

Wir brauchen deine Erlaubnis

Meteoprog und unser Service Anbieter werden persönliche Daten aufbewahren, so wie Cookies, Geräte Bezeichnung oder ähnliche Technologien von deinem Gerät und Prozess, so wie Persönliche Daten Inhalte und Werbungen, genauso wie social Media und den Verkehr zu analysieren.

  • Aufbewahrung und/oder Zugang zu deiner Geräte Informationen.

    Cookies, Geräte Bezeichnung oder andere Informationen, können aufbewahrt oder Zugang zu deinem Gerät erhalten, für den Grund, der oben angegeben wird.

  • Personalisierte Werbung und Inhalte, Messungen, Einblick in das Publikum und Produkt Entwicklung.

    Werbungen und Inhalte können personalisiert werden, basierend auf ein Profil. Mehr Daten können besser personalisierte Werbungen und Inhalte hinzufügen. Werbung und Inhalte können gezeigt und gemessen werden. Einblicke über das Publikum, welche die Werbung gesehen haben und den Inhalt, können abgeleitet werden. So wie Daten können genutzt werden, um es zu verbessern oder die Benutzer Erfahrung zu verbessern das System und die Software.

Wenn du “Ich stimme zu” klickst, erlaubst du uns, die Cookies zu benutzen die Geräte Bezeichnung, den Web oder ähnliche Technologien zu benutzen. Deine Settings, können in deinem Gerät bei deinem Browser geändert werden.

Für den bestimmten Zweck, berechtigten Interessen beruhen darauf, mehr als auf den Inhalt. Du kannst mehr darüber in unseren Privaten und Cookie Politik lesen.